McKinleyville, CA

9:15 PM PST on February 24, 2017 (GMT -0800)
Arcata

Weather History for KACV - August, 2014

Change the Weather History Date:

Friday, August 15, 2014

  Actual Average Record
Temperature  
Mean Temperature 60 °F -  
Max Temperature 66 °F 62 °F 71 °F (2013)
Min Temperature 54 °F 50 °F 46 °F (2011)
Degree Days  
Heating Degree Days 4    
Growing Degree Days 10 (Base 50)    
Moisture  
Dew Point 56 °F    
Average Humidity 90    
Maximum Humidity 97    
Minimum Humidity 73    
Precipitation  
Precipitation 0.00 in - - ()
Sea Level Pressure  
Sea Level Pressure 30.04 in    
Wind  
Wind Speed 3 mph (NW)    
Max Wind Speed 17 mph    
Max Gust Speed 20 mph    
Visibility 7 miles    
Events      
Averages and records for this station are not official NWS values.
T = Trace of Precipitation, MM = Missing Value Source: NWS Daily Summary

Daily Weather History Graph

Daily Weather History Graph

Search for Another Location

Airport or City:

Trip Planner

Search our weather history database for the weather conditions in past years. The results will help you decide how hot, cold, wet, or windy it might be!

Date:

Astronomy

Aug. 15, 2014 Rise Set
Actual Time 6:26 AM PDT 8:14 PM PDT
Civil Twilight 5:56 AM PDT 8:44 PM PDT
Nautical Twilight 5:20 AM PDT 9:19 PM PDT
Astronomical Twilight 4:42 AM PDT 9:58 PM PDT
Moon 11:17 PM PDT (8/15) 12:18 PM PDT (8/15)
Length of Visible Light 14h 47m
Length of Day
13h 48m
Waning Gibbous, 68% of the Moon is Illuminated
Aug 15
Waning Gibbous
Aug 17
Last Quarter
Aug 25
New
Sep 2
First Quarter
Sep 8
Full

Hourly Weather History & Observations

Time (PDT) Temp. Dew Point Humidity Pressure Visibility Wind Dir Wind Speed Gust Speed Precip Events Conditions
12:09 AM 55.0 °F 53.1 °F 93% 30.00 in 10.0 mi East 3.5 mph - N/A   Scattered Clouds
12:18 AM 55.0 °F 53.1 °F 93% 30.00 in 10.0 mi Calm Calm - N/A   Mostly Cloudy
12:53 AM 57.9 °F 55.9 °F 93% 30.02 in 10.0 mi Calm Calm - N/A   Overcast
1:12 AM 57.9 °F 55.9 °F 93% 30.01 in 10.0 mi Calm Calm - N/A   Overcast
1:41 AM 59.0 °F 57.0 °F 93% 30.01 in 9.0 mi Calm Calm - N/A   Overcast
1:53 AM 59.0 °F 57.9 °F 96% 30.02 in 10.0 mi Calm Calm - N/A   Overcast
2:53 AM 59.0 °F 57.0 °F 93% 30.02 in 7.0 mi Calm Calm - N/A   Overcast
3:53 AM 59.0 °F 57.0 °F 93% 30.02 in 6.0 mi Calm Calm - N/A   Overcast
4:53 AM 57.9 °F 55.9 °F 93% 30.01 in 10.0 mi East 3.5 mph - N/A   Overcast
5:38 AM 57.9 °F 55.9 °F 93% 30.00 in 2.5 mi Calm Calm - N/A   Overcast
5:46 AM 57.9 °F 57.0 °F 97% 30.00 in 3.0 mi Calm Calm - N/A   Overcast
5:53 AM 57.9 °F 57.0 °F 97% 30.01 in 4.0 mi Calm Calm - N/A   Overcast
6:07 AM 57.9 °F 55.9 °F 93% 30.00 in 4.0 mi Calm Calm - N/A   Overcast
7:05 AM 57.9 °F 57.0 °F 97% 30.01 in 2.5 mi Calm Calm - N/A   Overcast
7:22 AM 57.9 °F 57.0 °F 97% 30.01 in 1.2 mi Calm Calm - N/A   Overcast
7:36 AM 57.9 °F 57.0 °F 97% 30.02 in 2.0 mi Calm Calm - N/A   Overcast
7:43 AM 57.9 °F 57.0 °F 97% 30.02 in 1.8 mi Calm Calm - N/A   Overcast
7:53 AM 57.9 °F 57.0 °F 97% 30.04 in 2.0 mi SSE 4.6 mph - N/A   Overcast
8:03 AM 57.9 °F 57.0 °F 97% 30.03 in 3.0 mi SSE 3.5 mph - N/A   Overcast
8:36 AM 59.0 °F 57.0 °F 93% 30.03 in 1.8 mi Calm Calm - N/A   Overcast
8:46 AM 59.0 °F 57.9 °F 96% 30.04 in 2.5 mi Calm Calm - N/A   Overcast
8:53 AM 57.9 °F 57.0 °F 97% 30.06 in 2.5 mi WNW 4.6 mph - N/A   Overcast
9:05 AM 57.9 °F 57.0 °F 97% 30.04 in 1.2 mi NW 4.6 mph - N/A   Overcast
9:15 AM 57.9 °F 57.0 °F 97% 30.05 in 3.0 mi WNW 3.5 mph - N/A   Overcast
9:30 AM 59.0 °F 57.0 °F 93% 30.05 in 1.5 mi NW 5.8 mph - N/A   Overcast
9:39 AM 59.0 °F 57.0 °F 93% 30.05 in 0.8 mi NNW 5.8 mph - N/A   Overcast
9:44 AM 59.0 °F 57.9 °F 96% 30.05 in 2.0 mi NW 4.6 mph - N/A   Overcast
9:53 AM 59.0 °F 57.9 °F 96% 30.06 in 4.0 mi NW 5.8 mph - N/A   Overcast
10:53 AM 60.1 °F 57.9 °F 93% 30.07 in 10.0 mi WNW 5.8 mph - N/A   Overcast
11:03 AM 61.0 °F 57.9 °F 90% 30.06 in 10.0 mi NW 4.6 mph - N/A   Overcast
11:39 AM 63.0 °F 57.0 °F 81% 30.05 in 10.0 mi NW 9.2 mph - N/A   Overcast
11:51 AM 64.4 °F 57.2 °F 77% 30.05 in 10.0 mi NW 8.1 mph - N/A   Overcast
11:53 AM 64.0 °F 57.0 °F 78% 30.07 in 10.0 mi WNW 9.2 mph - N/A   Overcast
12:19 PM 64.0 °F 57.0 °F 78% 30.05 in 10.0 mi WNW 10.4 mph - N/A   Overcast
12:37 PM 63.0 °F 55.9 °F 78% 30.05 in 10.0 mi NW 10.4 mph - N/A   Overcast
12:53 PM 63.0 °F 57.0 °F 81% 30.06 in 10.0 mi WNW 6.9 mph - N/A   Mostly Cloudy
1:09 PM 63.0 °F 55.9 °F 78% 30.05 in 10.0 mi WNW 8.1 mph - N/A   Scattered Clouds
1:53 PM 64.9 °F 57.0 °F 75% 30.06 in 10.0 mi NW 12.7 mph 19.6 mph N/A   Partly Cloudy
2:53 PM 66.0 °F 57.0 °F 73% 30.04 in 10.0 mi NNW 13.8 mph - N/A   Clear
3:53 PM 64.9 °F 55.9 °F 73% 30.04 in 10.0 mi NNW 15.0 mph - N/A   Clear
4:53 PM 64.0 °F 55.9 °F 75% 30.04 in 10.0 mi NW 17.3 mph - N/A   Clear
5:53 PM 63.0 °F 55.9 °F 78% 30.04 in 10.0 mi NW 16.1 mph - N/A   Clear
6:53 PM 61.0 °F 55.9 °F 83% 30.04 in 10.0 mi NW 15.0 mph - N/A   Clear
7:53 PM 60.1 °F 55.9 °F 86% 30.04 in 10.0 mi NNW 11.5 mph - N/A   Clear
8:53 PM 59.0 °F 55.9 °F 90% 30.05 in 10.0 mi NNW 8.1 mph - N/A   Clear
10:53 PM 55.9 °F 53.1 °F 90% 30.07 in 10.0 mi SE 4.6 mph - N/A   Clear
11:53 PM 54.0 °F 52.0 °F 93% 30.06 in 10.0 mi Calm Calm - N/A   Clear